Pearl, MS

1:11 AM CDT on August 25, 2016 (GMT -0500)
Jackson-Evers International

Weather History for KJAN - April, 2013

Change the Weather History Date:

Friday, April 26, 2013

  Actual Average Record
Temperature  
Mean Temperature 63 °F 67 °F  
Max Temperature 79 °F 78 °F 90 °F (1989)
Min Temperature 46 °F 55 °F 36 °F (1910)
Degree Days  
Heating Degree Days 2 2  
Month to date heating degree days 114 102  
Since 1 July heating degree days 2257 2372  
Cooling Degree Days 0 4  
Month to date cooling degree days 71 64  
Year to date cooling degree days 88 101  
Growing Degree Days 12 (Base 50)    
Moisture  
Dew Point 49 °F    
Average Humidity 66    
Maximum Humidity 93    
Minimum Humidity 38    
Precipitation  
Precipitation 0.00 in 0.15 in 2.22 in (1920)
Month to date precipitation 4.31 4.42  
Year to date precipitation 27.34 19.19  
Sea Level Pressure  
Sea Level Pressure 30.24 in    
Wind  
Wind Speed 6 mph (SE)    
Max Wind Speed 15 mph    
Max Gust Speed 17 mph    
Visibility 10 miles    
Events      
T = Trace of Precipitation, MM = Missing Value Source: NWS Daily Summary

Daily Weather History Graph

Daily Weather History Graph

Search for Another Location

Airport or City:

Trip Planner

Search our weather history database for the weather conditions in past years. The results will help you decide how hot, cold, wet, or windy it might be!

Date:

Astronomy

Apr. 26, 2013 Rise Set
Actual Time 6:18 AM CDT 7:37 PM CDT
Civil Twilight 5:52 AM CDT 8:03 PM CDT
Nautical Twilight 5:22 AM CDT 8:34 PM CDT
Astronomical Twilight 4:50 AM CDT 9:06 PM CDT
Moon 8:56 PM CDT (4/26) 6:49 AM CDT (4/26)
Length of Visible Light 14h 10m
Length of Day
13h 19m
Full, 99% of the Moon is Illuminated
Apr 26
Full
May 2
Last Quarter
May 9
New
May 17
First Quarter
May 24
Full

Hourly Weather History & Observations

Time (CDT) Temp. Dew Point Humidity Pressure Visibility Wind Dir Wind Speed Gust Speed Precip Events Conditions
12:54 AM 54.0 °F 42.1 °F 64% 30.29 in 10.0 mi East 5.8 mph - N/A   Clear
1:54 AM 51.8 °F 42.8 °F 71% 30.27 in 10.0 mi ENE 5.8 mph - N/A   Clear
2:54 AM 51.1 °F 41.0 °F 68% 30.26 in 10.0 mi ENE 4.6 mph - N/A   Clear
3:54 AM 50.0 °F 42.1 °F 74% 30.24 in 10.0 mi Calm Calm - N/A   Clear
4:54 AM 46.9 °F 43.0 °F 86% 30.25 in 10.0 mi Calm Calm - N/A   Clear
5:54 AM 46.9 °F 43.0 °F 86% 30.26 in 10.0 mi Calm Calm - N/A   Clear
6:54 AM 46.9 °F 44.1 °F 90% 30.31 in 10.0 mi North 6.9 mph - N/A   Clear
7:54 AM 52.0 °F 43.0 °F 71% 30.32 in 10.0 mi Calm Calm - N/A   Clear
8:54 AM 60.1 °F 41.0 °F 49% 30.32 in 10.0 mi East 5.8 mph - N/A   Clear
9:54 AM 64.9 °F 39.9 °F 40% 30.31 in 10.0 mi ESE 10.4 mph - N/A   Clear
10:54 AM 68.0 °F 42.1 °F 39% 30.31 in 10.0 mi ESE 8.1 mph - N/A   Clear
11:54 AM 71.1 °F 45.0 °F 39% 30.28 in 10.0 mi SSE 6.9 mph - N/A   Clear
12:54 PM 73.0 °F 46.9 °F 39% 30.26 in 10.0 mi South 6.9 mph - N/A   Clear
1:54 PM 75.0 °F 51.1 °F 43% 30.24 in 10.0 mi South 8.1 mph - N/A   Clear
2:54 PM 78.1 °F 52.0 °F 40% 30.23 in 10.0 mi SSW 8.1 mph - N/A   Clear
3:54 PM 78.1 °F 53.1 °F 42% 30.20 in 10.0 mi South 9.2 mph - N/A   Clear
4:54 PM 78.1 °F 55.0 °F 45% 30.18 in 10.0 mi SE 11.5 mph - N/A   Clear
5:54 PM 77.0 °F 55.9 °F 48% 30.17 in 10.0 mi SE 10.4 mph - N/A   Clear
6:54 PM 75.0 °F 57.9 °F 55% 30.17 in 10.0 mi South 6.9 mph - N/A   Clear
7:54 PM 71.1 °F 59.0 °F 66% 30.18 in 10.0 mi SSW 5.8 mph - N/A   Mostly Cloudy
8:54 PM 69.1 °F 57.9 °F 68% 30.19 in 10.0 mi SE 3.5 mph - N/A   Partly Cloudy
9:54 PM 68.0 °F 59.0 °F 73% 30.19 in 10.0 mi South 5.8 mph - N/A   Partly Cloudy
10:54 PM 66.0 °F 59.0 °F 78% 30.18 in 10.0 mi SE 6.9 mph - N/A   Scattered Clouds
11:54 PM 64.0 °F 57.9 °F 80% 30.17 in 10.0 mi SE 9.2 mph - N/A   Clear